Location: Pinon Hills
(34.4429°N, 117.6403°W)
Time: 14:54:46
(UTC-07:00)

ISS - Visible Passes

Search period start: 22 April 2019 00:00
Search period end: 02 May 2019 00:00
Orbit: 408 x 410 km, 51.6° (Epoch: 23 April)

Date Brightness Start Highest point End Pass type
(mag) Time Alt. Az. Time Alt. Az. Time Alt. Az.
25 Apr -0.9 05:02:45 10° SSE 05:03:57 12° SE 05:05:09 10° ESE visible
27 Apr -2.5 04:56:22 15° S 04:58:35 34° SE 05:01:38 10° ENE visible
28 Apr -1.5 04:07:48 17° SE 04:07:55 17° SE 04:10:07 10° E visible
29 Apr -3.8 04:51:53 30° WSW 04:53:21 73° NW 04:56:40 10° NE visible
30 Apr -2.8 04:03:07 44° E 04:03:07 44° E 04:05:45 10° ENE visible
30 Apr -1.6 05:37:07 10° WNW 05:39:18 16° NNW 05:41:29 10° N visible
01 May -0.5 03:14:16 11° ENE 03:14:16 11° ENE 03:14:30 10° ENE visible
01 May -2.3 04:47:00 21° WNW 04:48:16 26° NW 04:51:07 10° NNE visible
